User: anonymous   Login
Location: Caltech
(34.1382°N, 118.1253°W)
Time: 00:28:46
(UTC-08:00)
Language:

Oscar 10/S400 - Orbit

View from above orbital plane
View from above orbital plane
View from above satellite
View from above satellite

Ground track
Ground track

The orbit data is extracted from the following two-line orbital elements,

1 14129U 83058B   17020.27617164 -.00000125  00000-0  00000+0 0  9993
2 14129  26.8779  58.1530 6020250 265.7682  39.5226  2.05870600224778
Epoch (UTC): 20 January 2017 06:37:41
Eccentricity: 0.6020250
inclination: 26.8779°
perigee height: 4010 km
apogee height: 35437 km
right ascension of ascending node: 58.1530°
argument of perigee: 265.7682°
revolutions per day: 2.05870600
mean anomaly at epoch: 39.5226°
orbit number at epoch: 22477

The dashed part of the orbit path shows where the satellite is in the earth's shadow,  

DLR